Regional Weather Roundup
Issued by NWS State College, PA

Home | Current Version | Previous Version | Graphics & Text | Print | Product List | Glossary Off
Versions: 1 2 3 4 5 6 7 8 9 10 11 12 13 14 15 16 17 18 19 20 21 22 23 24 25 26 27 28 29 30 31 32 33 34 35 36 37 38 39 40 41 42 43 44 45 46 47 48 49 50

000
ASUS41 KCTP 281403
RWRCTP

REGIONAL WEATHER ROUNDUP
NATIONAL WEATHER SERVICE STATE COLLEGE PA
1000 AM EDT FRI AUG 28 2015

Note: "fair" indicates few or no clouds below 12,000 feet with no
significant weather and/or obstructions to visibility.

* = STATION THAT DOES NOT REPORT PRECIPITATION /E.G. RAIN...SNOW...ETC/
    THUNDER OR FOG.

PAZ002>004-007>009-013>016-020>023-029>032-281500-
WESTERN PENNSYLVANIA

CITY           SKY/WX    TMP DP  RH WIND       PRES   REMARKS
ERIE           SUNNY     65  55  70 SW6       30.22F
MEADVILLE      SUNNY     61  53  75 S5        30.24F
FRANKLIN*      MOSUNNY   63  55  77 S3        30.26S
NEW CASTLE     FAIR      65  60  83 CALM      30.25S
BEAVER COUNTY  SUNNY     66  57  72 CALM      30.23F
BUTLER*        SUNNY     66  57  72 SE5       30.25S
PITTSBURGH INT SUNNY     67  57  70 CALM      30.23R
PITTSBURGH     SUNNY     66  54  65 CALM      30.22S
INDIANA*       SUNNY     66  57  72 CALM      30.27S
LATROBE        MOSUNNY   64  59  82 CALM      30.24S
WASHINGTON CO* SUNNY     63  57  82 CALM      30.24R
$$

PAZ004>006-010>012-017>019-024>028-033>037-041-042-045-046-049>053-281500-
CENTRAL PENNSYLVANIA

CITY           SKY/WX    TMP DP  RH WIND       PRES   REMARKS
BRADFORD       SUNNY     61  53  75 CALM      30.25F
DUBOIS         SUNNY     65  53  65 CALM      30.25S
CLEARFIELD       N/A    N/A N/A N/A MISG      30.26S
JOHNSTOWN      SUNNY     64  56  75 VRB3      30.26R
ALTOONA        SUNNY     66  56  70 CALM      30.25S
STATE COLLEGE  SUNNY     64  57  77 CALM      30.25S
WILLIAMSPORT   MOSUNNY   66  56  70 SW5       30.23S
SELINSGROVE    SUNNY     68  59  73 CALM      30.23F
FT INDIANTOWN  SUNNY     68  57  67 VRB1      30.22S
CAPITAL CITY   SUNNY     70  57  63 CALM      30.22S
HARRISBURG     SUNNY     69  60  73 W3        30.21S
YORK           SUNNY     69  60  73 CALM      30.22S
$$

PAZ038>040-043-044-047-048-054-055-060>062-067>071-281500-
EASTERN PENNSYLVANIA

CITY           SKY/WX    TMP DP  RH WIND       PRES   REMARKS
SCRANTON       SUNNY     65  54  67 CALM      30.24R
MOUNT POCONO   MOSUNNY   63  51  65 VRB6      30.24R
ALLENTOWN      SUNNY     68  55  63 CALM      30.22R
QUAKERTOWN*    SUNNY     68  57  68 NW5       30.23R
READING        MOSUNNY   69  56  62 VRB5      30.21R
LANCASTER      SUNNY     70  55  59 CALM      30.22S
COATESVILLE    SUNNY     70  55  60 CALM      30.23S
POTTSTOWN      SUNNY     70  57  63 CALM      30.23R
BLUE BELL      SUNNY     72  57  60 CALM      30.21R
DOYLESTOWN     MOSUNNY   69  56  62 N8        30.21R
WILLOW GROVE   NOT AVBL
NORTH PHILA    SUNNY     74  52  46 NE5       30.22R
PHILADELPHIA   MOSUNNY   74  51  44 CALM      30.20R
$$



USA.gov is the U.S. government's official web portal to all federal, state and local government web resources and services.